Regional Weather Roundup
Issued by NWS

Home | Current Version | Previous Version | Graphics & Text | Print | Product List | Glossary Off
Versions: 1 2 3 4 5 6 7 8 9 10 11 12 13 14 15 16 17 18 19 20 21 22 23 24 25 26 27 28 29 30 31 32 33 34 35 36 37 38 39 40 41 42 43 44 45 46 47 48 49 50

000
ASUS43 KMKX 211111
RWRWI

WISCONSIN REGIONAL WEATHER ROUNDUP
NATIONAL WEATHER SERVICE MILWAUKEE/SULLIVAN WI
500 AM CST SUN DEC 21 2014

NOTE: "FAIR" INDICATES FEW OR NO CLOUDS BELOW 12,000 FEET WITH NO
SIGNIFICANT WEATHER AND/OR OBSTRUCTIONS TO VISIBILITY.

WIZ001-002-006>008-014>016-023>028-211200-
NORTHWEST WISCONSIN

CITY           SKY/WX    TMP DP  RH WIND       PRES   REMARKS
SUPERIOR ARPT  CLOUDY    31  28  88 S5        29.97F WCI  27
ASHLAND        CLOUDY    31  26  82 S12       30.02F WCI  22
HAYWARD        CLOUDY    30  26  85 S7        29.99F FOG     WCI  23
SIREN          CLOUDY    32  28  85 S8        29.96F WCI  25
CUMBERLAND     CLOUDY    30  28  93 SE9       29.97F FOG     WCI  22
RICE LAKE      CLOUDY    30  28  93 SE10      30.01F FOG     WCI  21
CHETEK         CLOUDY    30  28  94 SE9       30.01F FOG     WCI  21
LADYSMITH      CLOUDY    30  28  93 SE6       30.04F FOG     WCI  24
EAU CLAIRE     CLOUDY    31  27  85 SE12      30.02F WCI  22
MENOMONIE      CLOUDY    31  30  95 E13       30.01F FOG     WCI  21
NEW RICHMOND   CLOUDY    31  31  98 SE9       29.98F FOG     WCI  23
OSCEOLA        CLOUDY    32  32 100 SE12      29.99F FOG     WCI  23
$$

WIZ003>005-009-010-017-018-211200-
NORTH CENTRAL WISCONSIN

CITY           SKY/WX    TMP DP  RH WIND       PRES   REMARKS
MANITOWISH WTR CLOUDY    27  27 100 S10       30.01F FOG     WCI  17
ARBOR VITAE    CLOUDY    29  28  93 S7        30.03F FOG     WCI  22
WOODRUFF       CLOUDY    29  28  93 S7        30.03F FOG     WCI  22
RHINELANDER    CLOUDY    26  25  96 S7        30.05F FOG     WCI  18
EAGLE RIVER    CLOUDY    27  27 100 S6        30.04S FOG     WCI  20
LAND O LAKES   CLOUDY    28  27  96 S7        30.03F FOG     WCI  20
PHILLIPS       CLOUDY    28  26  92 S9        30.02F WCI  19
TOMAHAWK       CLOUDY    27  26  95 CALM      30.06F FOG
MEDFORD        CLOUDY    28  27  96 SE8       30.05F FOG     WCI  19
MERRILL        CLOUDY    28  28  96 S7        30.07F FOG     WCI  21
$$

WIZ029-030-035-036-043>047-211200-
CENTRAL WISCONSIN

CITY           SKY/WX    TMP DP  RH WIND       PRES   REMARKS
WAUSAU         CLOUDY    29  26  89 S8        30.08F FOG     WCI  21
MOSINEE        CLOUDY    28  28 100 S8        30.10F FOG     WCI  20
MARSHFIELD     CLOUDY    29  26  89 SE6       30.07F FOG     WCI  23
STEVENS POINT  CLOUDY    28  26  95 S5        30.11F FOG     WCI  22
WAUPACA        CLOUDY    31  28  88 SE6       30.14F FOG     WCI  26
WAUTOMA        CLOUDY    30  29  96 SE7       30.13F FOG     WCI  23
WISC RAPIDS    CLOUDY    29  26  89 SE3       30.11F FOG
CAMP DOUGLAS   CLOUDY    30  30 100 SE7       30.09F WCI  23
$$

WIZ011>013-019>022-031-037>040-048>050-211200-
NORTHEAST WISCONSIN

CITY           SKY/WX    TMP DP  RH WIND       PRES   REMARKS
ANTIGO         CLOUDY    26  26 100 S9        30.08S FOG     WCI  16
SHAWANO        CLOUDY    31  28  86 S5        30.14F FOG     WCI  26
OCONTO         CLOUDY    30  28  94 CALM      30.15F
STURGEON BAY   CLOUDY    28  25  86 S5        30.17F WCI  23
GREEN BAY      CLOUDY    30  27  88 S5        30.15F FOG     WCI  25
MANITOWOC      CLOUDY    31  28  89 S5        30.17F WCI  26
APPLETON       NOT AVBL
CLINTONVILLE   CLOUDY    30  28  93 S5        30.13F FOG     WCI  25
OSHKOSH        CLOUDY    30  27  88 S6        30.15F FOG     WCI  24
$$

WIZ032>034-041-042-053>061-211200-
SOUTHWEST WISCONSIN

CITY           SKY/WX    TMP DP  RH WIND       PRES   REMARKS
LA CROSSE      CLOUDY    34  30  85 S7        30.06F FOG     WCI  28
SPARTA         CLOUDY    32  29  91 SE5       30.08F FOG     WCI  27
VIROQUA        CLOUDY    30  30 100 SE10      30.05F VSB 1/4 WCI  21
BOSCOBEL       CLOUDY    34  31  88 CALM      30.11S FOG
PRAIRIE DU CHI CLOUDY    33  32  96 SE3       30.08F FOG
PLATTEVILLE    CLOUDY    32  32  99 SE5       30.11F VSB 1/2 WCI  28
$$

WIZ056-057-062-063-064-067-068-211200-
SOUTH CENTRAL WISCONSIN

CITY           SKY/WX    TMP DP  RH WIND       PRES   REMARKS
REEDSBURG      CLOUDY    30  28  94 CALM      30.10F FOG
BARABOO/DELLS  CLOUDY    30  28  93 SE5       30.11F FOG     WCI  25
LONE ROCK      CLOUDY    35  29  78 SE6       30.12F HAZE    WCI  30
MINERAL POINT  SNOW      32  32 100 SE9       30.09F VSB 1/4 WCI  24
MADISON        LGT SNOW  31  29  92 S12       30.13F FOG     WCI  22
MIDDLETON      CLOUDY    33  32  98 S7        30.13F WCI  26
WATERTOWN      CLOUDY    31  30  97 S7        30.15S FOG     WCI  24
MONROE         CLOUDY    32  32 100 S9        30.12F FOG     WCI  24
JANESVILLE     CLOUDY    32  32 100 S8        30.15F FOG     WCI  25
$$

WIZ051-052-058>065-066-070>072-211200-
SOUTHEAST WISCONSIN

CITY           SKY/WX    TMP DP  RH WIND       PRES   REMARKS
MILWAUKEE      CLOUDY    32  26  78 S7        30.19F WCI  26
WAUKESHA       CLOUDY    30  27  86 S7        30.18F WCI  23
MILWAUKEE/TIMM LGT SNOW  32  27  80 S6        30.19S WCI  26
RACINE         CLOUDY    32  26  78 S6        30.21S WCI  26
BURLINGTON     CLOUDY    30  27  90 S3        30.18S FOG
KENOSHA        CLOUDY    32  27  81 S7        30.19F WCI  26
FOND DU LAC    CLOUDY    31  26  82 S7        30.15F WCI  24
SHEBOYGAN      CLOUDY    30  26  85 S6        30.17F WCI  24
WEST BEND      CLOUDY    30  27  86 S3        30.16F
JUNEAU         CLOUDY    30  28  91 SE8       30.15F FOG     WCI  23
$$

LSZ147-162-211200-
LAKE SUPERIOR

STATION/POSITION TIME  TEMP    WIND        PRES    WAVE
                       AIR SEA DIR/SP/G            HT/PER
                 (UTC) (F)     (DEG/KT/KT) (MB)    (FT/S)
DEVILS ISLAND    1100   32     190/ 10/ 12 1017.2F
PORT WING        1000   32     180/  8/ 13 1016.6
SAXON HARBOR     1040   32     190/  3/ 10 1016.9F
$$

LMZ867-665-643>646-211200-
LAKE MICHIGAN

STATION/POSITION TIME  TEMP    WIND        PRES    WAVE
                       AIR SEA DIR/SP/G            HT/PER
                 (UTC) (F)     (DEG/KT/KT) (MB)    (FT/S)
CHAMBERS ISLAND  1000   30     150/  2/  5 1022.0F
NORTHPORT PIER   1037   30     160/  2/  4 1021.7F
SISTER BAY       1013             CALM       N/A
ALGOMA LAKESHORE 1014          220/ 13/ 14   N/A
KEWAUNEE LAKESHO 1000   31     200/  5/  7 1021.4F
SHEBOYGAN LAKESH 1100   33 34  190/ 11/ 12 1022.6F
PORT WASHINGTON  1040   33     190/  5/  8 1022.7F
MILWAUKEE LAKESH 1000   33     180/  6/  7   N/A
KENOSHA   LAKESH 1100   33     180/  8/ 10 1022.4F
$$

TC  - TEMPERATURE IN CELSIUS
VSB - VISIBILITY IN STATUTE MILES
WCI - WIND CHILL INDEX
HX  - HEAT INDEX



USA.gov is the U.S. government's official web portal to all federal, state and local government web resources and services.